Richmond, VA

2:29 PM EST on February 23, 2018 (GMT -0500)
Richmond International

Weather History for KRIC - May, 2013

Change the Weather History Date:

Sunday, May 12, 2013

  Actual Average Record
Temperature  
Mean Temperature 62 °F 65 °F  
Max Temperature 73 °F 77 °F 92 °F (1956)
Min Temperature 51 °F 54 °F 38 °F (1941)
Degree Days  
Heating Degree Days 3 3  
Month to date heating degree days 45 42  
Since 1 July heating degree days 3650 3734  
Cooling Degree Days 0 3  
Month to date cooling degree days 18 28  
Year to date cooling degree days 84 70  
Growing Degree Days 14 (Base 50)    
Moisture  
Dew Point 48 °F    
Average Humidity 60    
Maximum Humidity 93    
Minimum Humidity 26    
Precipitation  
Precipitation 0.08 in 0.12 in 1.67 in (1912)
Month to date precipitation 1.68 1.35  
Year to date precipitation 18.06 14.46  
Snow  
Snow 0.00 in 0.00 in 0.00 in (2002)
Month to date snowfall 0.0 0.0  
Since 1 July snowfall 8.6 10.3  
Snow Depth 0.00 in    
Sea Level Pressure  
Sea Level Pressure 29.87 in    
Wind  
Wind Speed 8 mph (WNW)    
Max Wind Speed 20 mph    
Max Gust Speed 24 mph    
Visibility 10 miles    
Events Rain    
T = Trace of Precipitation, MM = Missing Value Source: NWS Daily Summary

Daily Weather History Graph

Daily Weather History Graph

Search for Another Location

Airport or City:

Trip Planner

Search our weather history database for the weather conditions in past years. The results will help you decide how hot, cold, wet, or windy it might be!

Date:

Astronomy

May. 12, 2013 Rise Set
Actual Time 6:02 AM EDT 8:09 PM EDT
Civil Twilight 5:33 AM EDT 8:38 PM EDT
Nautical Twilight 4:58 AM EDT 9:13 PM EDT
Astronomical Twilight 4:19 AM EDT 9:52 PM EDT
Moon 7:56 AM EDT (5/12) 10:34 PM EDT (5/12)
Length of Visible Light 15h 04m
Length of Day
14h 06m
Waxing Crescent, 6% of the Moon is Illuminated
May 12
Waxing Crescent
May 18
First Quarter
May 25
Full
May 31
Last Quarter
Jun 8
New

Hourly Weather History & Observations

Time (EDT) Temp. Dew Point Humidity Pressure Visibility Wind Dir Wind Speed Gust Speed Precip Events Conditions
12:54 AM 62.1 °F 60.1 °F 93% 29.78 in 10.0 mi SSW 5.8 mph - 0.00 in   Overcast
1:54 AM 62.1 °F 60.1 °F 93% 29.77 in 10.0 mi SW 5.8 mph - N/A   Overcast
2:54 AM 63.0 °F 61.0 °F 93% 29.76 in 10.0 mi WNW 6.9 mph - N/A   Mostly Cloudy
3:54 AM 63.0 °F 61.0 °F 93% 29.79 in 8.0 mi NW 3.5 mph - 0.03 in Rain Light Rain
4:54 AM 63.0 °F 61.0 °F 93% 29.80 in 10.0 mi Calm Calm - 0.03 in   Overcast
5:54 AM 62.1 °F 61.0 °F 96% 29.79 in 8.0 mi Calm Calm - 0.00 in   Overcast
6:54 AM 63.0 °F 61.0 °F 93% 29.83 in 9.0 mi West 8.1 mph - N/A   Overcast
7:54 AM 61.0 °F 57.9 °F 90% 29.82 in 10.0 mi NE 8.1 mph - 0.02 in   Mostly Cloudy
8:54 AM 64.0 °F 57.9 °F 80% 29.85 in 10.0 mi Calm Calm - N/A   Scattered Clouds
9:54 AM 68.0 °F 53.1 °F 59% 29.86 in 10.0 mi NW 15.0 mph - N/A   Scattered Clouds
10:54 AM 68.0 °F 48.9 °F 50% 29.86 in 10.0 mi NW 10.4 mph - N/A   Scattered Clouds
11:54 AM 69.1 °F 48.0 °F 47% 29.86 in 10.0 mi WNW 11.5 mph - N/A   Mostly Cloudy
12:54 PM 72.0 °F 46.9 °F 41% 29.85 in 10.0 mi WNW 16.1 mph 19.6 mph N/A   Mostly Cloudy
1:54 PM 71.1 °F 46.0 °F 41% 29.85 in 10.0 mi West 8.1 mph - N/A   Mostly Cloudy
2:54 PM 73.0 °F 41.0 °F 31% 29.85 in 10.0 mi West 18.4 mph 23.0 mph N/A   Mostly Cloudy
3:54 PM 72.0 °F 42.1 °F 34% 29.86 in 10.0 mi West 13.8 mph - N/A   Scattered Clouds
4:54 PM 72.0 °F 37.0 °F 28% 29.87 in 10.0 mi WNW 13.8 mph 21.9 mph N/A   Scattered Clouds
5:54 PM 71.1 °F 36.0 °F 28% 29.88 in 10.0 mi WNW 9.2 mph - N/A   Scattered Clouds
6:54 PM 69.1 °F 34.0 °F 27% 29.90 in 10.0 mi NW 11.5 mph - N/A   Scattered Clouds
7:54 PM 66.0 °F 30.9 °F 27% 29.94 in 10.0 mi NW 9.2 mph - N/A   Mostly Cloudy
8:54 PM 63.0 °F 30.0 °F 29% 29.98 in 10.0 mi NW 11.5 mph - N/A   Scattered Clouds
9:54 PM 59.0 °F 34.0 °F 39% 30.03 in 10.0 mi NNW 8.1 mph - N/A   Partly Cloudy
10:54 PM 55.9 °F 33.1 °F 42% 30.05 in 10.0 mi NNW 5.8 mph - N/A   Clear
11:54 PM 54.0 °F 33.1 °F 45% 30.06 in 10.0 mi NNW 5.8 mph - N/A   Clear